Location: Dealu Mare
(46.0500°N, 22.8167°E)
Time: 22:00:18
(UTC+00:00)

CZ-4 R/B - Pass Details

Date: 15 January 2026
Orbit: 676 x 743 km, 98.7° (Epoch: 10 February)

Event Time Altitude Azimuth Distance (km) Brightness Sun altitude
Rises 04:14:23 0° 10° (N) 3,093 7.1 -19.0°
Reaches altitude 10° 04:16:39 10° 6° (N) 2,181 6.3 -18.7°
Maximum altitude 04:21:19 56° 289° (WNW) 850 3.9 -17.9°
Drops below altitude 10° 04:26:03 10° 212° (SSW) 2,208 6.2 -17.1°
Sets 04:28:21 0° 208° (SSW) 3,134 7.0 -16.7°
